sat.trackr.live / text

‹ back to catalog

ONEWEB-0266

NORAD 48984 · 2021-060T

PAYLOAD ACTIVE UNKNOWN

§ Identity

Operator
Country
UK
Launch date
2021-07-01
Launch site
VOSTO
Launch vehicle
Mass (kg)
RCS (m²)

Purposes: comms

External: N2YO · Heavens-Above · Gunter

§ Orbital elements

Epoch: 2026-09-20T04:50:42.177120Z

Period
109.37 min
Inclination
87.9153°
Eccentricity
0.0001948
Mean motion
13.16593101 rev/d
Perigee alt
1,196.3 km
Apogee alt
1,199.2 km
Semi-major
7,575.9 km
B*
-6.4044e-5
RAAN
209.9125°
Arg perigee
78.1944°
Mean anomaly
281.9405°
Rev number
25,208

§ Raw data

ONEWEB-02661 48984U 21060T   26263.20187705 -.00000012  00000+0 -64044-4 0  99972 48984  87.9153 209.9125 0001948  78.1944 281.9405 13.16593101252087

JSON: /api/v1/satellites/48984 · /tle

For live sub-satellite position, see the globe view (requires WebGL).

§ Visibility from observer

Set your observer location to see the next 7 days of passes ≥ 10°. The values pass through the URL so the page stays shareable.

No JS? Fill the form by hand. The geolocation button needs JavaScript.